Regional Weather Roundup
Issued by NWS Charleston, SC

Current Version | Previous Version | Graphics & Text | Print | Product List | Glossary On
Versions: 1 2 3 4 5 6 7 8 9 10 11 12 13 14 15 16 17 18 19 20 21 22 23 24 25 26 27 28 29 30 31 32 33 34 35 36 37 38 39 40 41 42 43 44 45 46 47 48 49 50
264
ASUS42 KCHS 110412
RWRCHS

REGIONAL WEATHER ROUNDUP
NATIONAL WEATHER SERVICE CHARLESTON SC
1100 PM EST SUN DEC 10 2017

NOTE: "FAIR" INDICATES FEW OR NO CLOUDS BELOW 12,000 FEET WITH NO
SIGNIFICANT WEATHER AND/OR OBSTRUCTIONS TO VISIBILITY.

NOT ALL STATIONS ARE QUALITY CONTROLLED. USE DATA WITH CAUTION...
ESPECIALLY DEWPOINT OBSERVATIONS.

SCZ027-030-031-034>040-042>050-110500-
...SOUTHEAST SOUTH CAROLINA...

CITY           SKY/WX    TMP DP  RH WIND       PRES   REMARKS
N CHARLESTON   CLEAR     37  32  82 W5        30.25R WCI  33
WATERFRONT PRK   N/A     42  35  76 VRB2      30.09S
JOHNS ISLAND   FAIR      39  32  75 CALM      30.25S
PINOPOLIS        N/A     41  34  75 SW7       30.17R
MONCKS CORNER  FAIR      30  30 100 CALM      30.24S
SUMMERVILLE    FAIR      32  32 100 CALM      30.26R
BEAUFORT MCAS  CLEAR     35  31  85 SW6       30.26R WCI  30
BEAUFORT ARPT  FAIR      39  32  75 SW6       30.26R WCI  35
HILTON HEAD IS CLEAR     36  34  93 SW5       30.27R WCI  32
WALTERBORO     CLEAR     34  30  86 W5        30.27R WCI  30
ALLENDALE      FAIR      32  30  93 CALM      30.25R

...SOUTHERN MIDLANDS AND PEE DEE...

CITY           SKY/WX    TMP DP  RH WIND       PRES   REMARKS
GEORGETOWN     FAIR      32  32 100 CALM      30.25R
KINGSTREE      FAIR      32  30  93 CALM      30.23R
ORANGEBURG     CLEAR     34  28  79 SW5       30.23R WCI  30
BARNWELL         N/A     34  28  80 CALM      30.24S
AIKEN          FAIR      32  27  80 SW8       30.25S WCI  25
MANNING        FAIR      32  30  93 MISG      30.23S
COLUMBIA       CLEAR     32  28  85 CALM      30.21S
SUMTER         CLEAR     34  27  76 SW6       30.19R WCI  29
FLORENCE       CLEAR     34  28  79 S7        30.21S WCI  28
MYRTLE BEACH   CLEAR     38  31  76 SW6       30.25R WCI  33
N MYRTLE BEACH CLEAR     38  30  73 SW5       30.22R WCI  34

$$

GAZ063-065-086>088-099>101-113>116-118-119-134>141-150-110500-
...SOUTHEAST GEORGIA...

CITY           SKY/WX    TMP DP  RH WIND       PRES   REMARKS
SAVANNAH ARPT  CLEAR     36  31  82 W5        30.28R WCI  32
HUNTER AAF     CLEAR     35  30  82 SW5       30.25S WCI  31
FORT STEWART   CLEAR     33  30  91 CALM      30.26R
STATESBORO     CLEAR     37  27  68 CALM      30.27R
SYLVANIA       CLEAR     36  32  85 CALM      30.27R
CLAXTON        FAIR      32  32  99 CALM      30.28R

...CSRA...CENTRAL AND FAR SOUTHEAST GEORGIA...

CITY           SKY/WX    TMP DP  RH WIND       PRES   REMARKS
THOMSON        CLEAR     32  25  74 NW3       30.28S
AUGUSTA-BUSH   CLEAR     30  27  88 CALM      30.24R
AUGUSTA-DANIEL CLEAR     40  25  55 VRB3      30.24R
SWAINSBORO     FAIR      34  30  86 W3        30.28S
VIDALIA        CLEAR     37  32  81 W3        30.28S
EASTMAN        FAIR      36  23  59 W3        30.31F
HAZLEHURST     FAIR      37  28  69 CALM      30.28S
ALMA           CLEAR     33  30  88 W3        30.29R
WAYCROSS       CLEAR     34  30  84 W5        30.30R WCI  30
JESUP          NOT AVBL
BAXLEY         FAIR      34  30  86 CALM      30.29R
BRUNSWICK      FOG       32  32 100 CALM      30.30R VSB 3/4
SAINT SIMONS   CLEAR     41  35  79 W6        30.29R

$$

SCZ027-028-034-036>038-045-046-048>050-GAZ119-141-110500-
...LAKE AND SUPPLEMENTAL COASTAL OBSERVATIONS...

STATION/POSITION TIME  TEMP    WIND        PRES    WAVE   SWELL
                       AIR SEA DIR/SP/G            HT/PER HT/PER/DIR
                 (UTC) (F)     (DEG/KT/KT) (MB)    (FT/S) (FT/S/D)
WINYAH BAY       0245   39     250/  3     1024.0
LAKE MURRAY      0320   44     250/  9/ 16 1021.7
ACE BASIN NERRS  0245   36        CALM     1024.0
FORT PULASKI     0348   42 56  230/  5/  7 1025.0F
SAPELO ISLAND    NOT AVBL

$$

ANZ835-935-AMZ111-154-330-350-352-354-370-450-454-472-110500-
...C-MAN AND BUOY OBSERVATIONS...

STATION/POSITION TIME  TEMP    WIND        PRES    WAVE   SWELL
                       AIR SEA DIR/SP/G            HT/PER HT/PER/DIR
                 (UTC) (F)     (DEG/KT/KT) (MB)    (FT/S) (FT/S/D)
BUOY 41004       0350      73  270/ 12/ 19 1023.3F
BUOY 41008       0350   51 61  260/ 16/ 17 1024.8F   2/ 3   2/ 60/ 9
FOLLY BEACH CMAN 0300   42     250/  5/  6 1024.6S
CAPERS NEARSHORE 0308   45     260/ 16/ 21 1023.7F
FRIPP NEARSHORE  0308   47 56  240/ 14/ 23 1023.8R


STATION/POSITION TIME  TEMP    WIND        PRES    WAVE   SWELL
                       AIR SEA DIR/SP/G            HT/PER HT/PER/DIR
                 (UTC) (F)     (DEG/KT/KT) (MB)    (FT/S) (FT/S/D)
5E ST. MARYS GA  0330      60                N/A     1/ 9
FRYING PAN BUOY  0350   52     260/ 14/ 19 1022.8F   3/ 6   2/110/ 8
BUOY 41025       0350   49 75  270/ 14/ 19 1022.3S   5/ 9   3/ 80/ 9
CAPE LOOKOUT NC  0300          260/  9/ 11 1022.7S
BUOY 41002       0250   58 76  330/  8/ 12 1022.9    7/ 8   7/290/ 8
BUOY 41010       NOT AVBL
ST AUGUSTINE FL  0400   45 62  290/  6/  7 1026.3F


$$




USA.gov is the U.S. government's official web portal to all federal, state and local government web resources and services.